Cody, WY

1:49 PM MST on December 04, 2016 (GMT -0700)
Yellowstone Regional

Weather History for KCOD - July, 2012

Change the Weather History Date:

Sunday, July 8, 2012

  Actual Average Record
Temperature  
Mean Temperature 74 °F -  
Max Temperature 89 °F 84 °F 98 °F (1921)
Min Temperature 59 °F 53 °F 40 °F (1981)
Cooling Degree Days 9    
Growing Degree Days 24 (Base 50)    
Moisture  
Dew Point 44 °F    
Average Humidity 38    
Maximum Humidity 59    
Minimum Humidity 14    
Precipitation  
Precipitation 0.00 in - - ()
Sea Level Pressure  
Sea Level Pressure 30.29 in    
Wind  
Wind Speed 6 mph (SW)    
Max Wind Speed 17 mph    
Max Gust Speed 23 mph    
Visibility 10 miles    
Events      
Averages and records for this station are not official NWS values.
T = Trace of Precipitation, MM = Missing Value Source: NWS Daily Summary

Daily Weather History Graph

Daily Weather History Graph

Search for Another Location

Airport or City:

Trip Planner

Search our weather history database for the weather conditions in past years. The results will help you decide how hot, cold, wet, or windy it might be!

Date:

Astronomy

Jul. 08, 2012 Rise Set
Actual Time 5:40 AM MDT 9:02 PM MDT
Civil Twilight 5:03 AM MDT 9:38 PM MDT
Nautical Twilight 4:16 AM MDT 10:25 PM MDT
Astronomical Twilight 3:17 AM MDT 11:24 PM MDT
Moon 11:34 PM MDT (7/8) 11:25 AM MDT (7/8)
Length of Visible Light 16h 34m
Length of Day
15h 22m
Waning Gibbous, 72% of the Moon is Illuminated
Jul 8
Waning Gibbous
Jul 10
Last Quarter
Jul 18
New
Jul 26
First Quarter
Aug 1
Full

Hourly Weather History & Observations

Time (MDT) Temp. Dew Point Humidity Pressure Visibility Wind Dir Wind Speed Gust Speed Precip Events Conditions
12:15 AM 64.4 °F 42.8 °F 45% 30.32 in 10.0 mi South 3.5 mph - N/A   Clear
12:35 AM 62.6 °F 41.0 °F 45% 30.32 in 10.0 mi SSE 4.6 mph - N/A   Clear
12:55 AM 64.4 °F 42.8 °F 45% 30.32 in 10.0 mi South 3.5 mph - N/A   Clear
1:15 AM 64.4 °F 44.6 °F 49% 30.32 in 10.0 mi SSW 4.6 mph - N/A   Clear
1:35 AM 62.6 °F 44.6 °F 52% 30.31 in 10.0 mi Calm Calm - N/A   Clear
1:55 AM 62.6 °F 44.6 °F 52% 30.31 in 10.0 mi South 3.5 mph - N/A   Clear
2:15 AM 62.6 °F 44.6 °F 52% 30.31 in 10.0 mi South 5.8 mph - N/A   Clear
2:35 AM 62.6 °F 44.6 °F 52% 30.30 in 10.0 mi SSW 5.8 mph - N/A   Clear
2:55 AM 64.4 °F 46.4 °F 52% 30.30 in 10.0 mi SSW 4.6 mph - N/A   Clear
3:35 AM 64.4 °F 46.4 °F 52% 30.30 in 10.0 mi SSW 3.5 mph - N/A   Clear
4:15 AM 62.6 °F 44.6 °F 52% 30.30 in 10.0 mi SW 6.9 mph - N/A   Clear
4:35 AM 62.6 °F 44.6 °F 52% 30.30 in 10.0 mi SW 8.1 mph - N/A   Clear
4:55 AM 62.6 °F 44.6 °F 52% 30.30 in 10.0 mi SSW 6.9 mph - N/A   Clear
5:15 AM 60.8 °F 44.6 °F 55% 30.30 in 10.0 mi Calm Calm - N/A   Clear
5:35 AM 60.8 °F 42.8 °F 52% 30.30 in 10.0 mi SSW 9.2 mph - N/A   Clear
5:55 AM 62.6 °F 42.8 °F 48% 30.30 in 10.0 mi WNW 3.5 mph - N/A   Clear
6:35 AM 62.6 °F 44.6 °F 52% 30.31 in 10.0 mi SSW 5.8 mph - N/A   Clear
6:55 AM 59.0 °F 44.6 °F 59% 30.31 in 10.0 mi Calm Calm - N/A   Clear
7:15 AM 59.0 °F 44.6 °F 59% 30.31 in 10.0 mi Calm Calm - N/A   Clear
7:35 AM 62.6 °F 44.6 °F 52% 30.32 in 10.0 mi Calm Calm - N/A   Clear
7:55 AM 64.4 °F 44.6 °F 49% 30.32 in 10.0 mi Calm Calm - N/A   Clear
8:15 AM 66.2 °F 44.6 °F 46% 30.32 in 10.0 mi Calm Calm - N/A   Clear
8:35 AM 69.8 °F 46.4 °F 43% 30.32 in 10.0 mi Calm Calm - N/A   Clear
8:55 AM 71.6 °F 46.4 °F 41% 30.31 in 10.0 mi Calm Calm - N/A   Clear
9:15 AM 73.4 °F 46.4 °F 38% 30.31 in 10.0 mi North 3.5 mph - N/A   Clear
9:35 AM 75.2 °F 46.4 °F 36% 30.31 in 10.0 mi Calm Calm - N/A   Clear
9:55 AM 75.2 °F 46.4 °F 36% 30.31 in 10.0 mi Calm Calm - N/A   Clear
10:15 AM 77.0 °F 48.2 °F 36% 30.30 in 10.0 mi NNW 4.6 mph - N/A   Clear
10:35 AM 80.6 °F 44.6 °F 28% 30.30 in 10.0 mi Calm Calm - N/A   Clear
11:15 AM 80.6 °F 44.6 °F 28% 30.30 in 10.0 mi North 5.8 mph - N/A   Clear
11:35 AM 82.4 °F 39.2 °F 21% 30.29 in 10.0 mi South 4.6 mph - N/A   Clear
12:15 PM 84.2 °F 39.2 °F 20% 30.28 in 10.0 mi SE 6.9 mph - N/A   Partly Cloudy
12:35 PM 86.0 °F 39.2 °F 19% 30.28 in 10.0 mi ESE 6.9 mph - N/A   Partly Cloudy
12:55 PM 86.0 °F 37.4 °F 18% 30.27 in 10.0 mi ENE 5.8 mph - N/A   Partly Cloudy
1:35 PM 87.8 °F 35.6 °F 16% 30.26 in 10.0 mi East 8.1 mph 17.3 mph N/A   Clear
1:55 PM 87.8 °F 33.8 °F 15% 30.25 in 10.0 mi SE 9.2 mph 18.4 mph N/A   Clear
2:15 PM 89.6 °F 33.8 °F 14% 30.25 in 10.0 mi ESE 10.4 mph 16.1 mph N/A   Clear
2:35 PM 87.8 °F 33.8 °F 15% 30.25 in 10.0 mi South 5.8 mph - N/A   Scattered Clouds
2:55 PM 86.0 °F 39.2 °F 19% 30.26 in 10.0 mi NW 13.8 mph 19.6 mph N/A   Mostly Cloudy
3:15 PM 82.4 °F 46.4 °F 28% 30.26 in 10.0 mi NNW 16.1 mph 20.7 mph N/A   Overcast
3:35 PM 82.4 °F 46.4 °F 28% 30.25 in 10.0 mi NW 12.7 mph 20.7 mph N/A   Scattered Clouds
3:55 PM 80.6 °F 44.6 °F 28% 30.26 in 8.0 mi WNW 10.4 mph 18.4 mph N/A   Clear
4:15 PM 80.6 °F 44.6 °F 28% 30.27 in 10.0 mi NW 15.0 mph 20.7 mph N/A   Mostly Cloudy
4:35 PM 80.6 °F 44.6 °F 28% 30.27 in 10.0 mi NW 12.7 mph 21.9 mph N/A   Mostly Cloudy
4:55 PM 80.6 °F 44.6 °F 28% 30.27 in 10.0 mi NW 13.8 mph 23.0 mph N/A   Clear
5:15 PM 78.8 °F 44.6 °F 30% 30.27 in 10.0 mi NNW 16.1 mph 23.0 mph N/A   Clear
5:35 PM 78.8 °F 44.6 °F 30% 30.27 in 10.0 mi NW 12.7 mph 20.7 mph N/A   Partly Cloudy
5:55 PM 77.0 °F 44.6 °F 32% 30.27 in 10.0 mi NW 9.2 mph 18.4 mph N/A   Partly Cloudy
6:15 PM 77.0 °F 44.6 °F 32% 30.26 in 10.0 mi NNW 6.9 mph - N/A   Partly Cloudy
6:35 PM 78.8 °F 42.8 °F 28% 30.26 in 10.0 mi West 5.8 mph - N/A   Mostly Cloudy
6:55 PM 80.6 °F 39.2 °F 23% 30.25 in 10.0 mi SSE 5.8 mph - N/A   Overcast
7:15 PM 80.6 °F 41.0 °F 24% 30.25 in 10.0 mi Calm Calm - N/A   Scattered Clouds
7:35 PM 78.8 °F 44.6 °F 30% 30.25 in 10.0 mi WSW 4.6 mph - N/A   Clear
8:15 PM 77.0 °F 44.6 °F 32% 30.26 in 10.0 mi WSW 9.2 mph - N/A   Clear
8:35 PM 77.0 °F 42.8 °F 29% 30.26 in 10.0 mi SW 13.8 mph 21.9 mph N/A   Clear
9:15 PM 73.4 °F 46.4 °F 38% 30.27 in 10.0 mi SW 13.8 mph 20.7 mph N/A   Clear
9:35 PM 71.6 °F 46.4 °F 41% 30.27 in 10.0 mi SW 13.8 mph 19.6 mph N/A   Clear
9:55 PM 71.6 °F 46.4 °F 41% 30.28 in 10.0 mi SSW 17.3 mph - N/A   Clear
10:15 PM 69.8 °F 46.4 °F 43% 30.27 in 10.0 mi SW 12.7 mph - N/A   Clear
10:35 PM 69.8 °F 46.4 °F 43% 30.28 in 10.0 mi SW 10.4 mph - N/A   Clear
10:55 PM 69.8 °F 46.4 °F 43% 30.28 in 10.0 mi SW 10.4 mph - N/A   Clear
11:15 PM 69.8 °F 48.2 °F 46% 30.28 in 10.0 mi SSW 11.5 mph - N/A   Clear
11:35 PM 69.8 °F 48.2 °F 46% 30.28 in 10.0 mi SW 8.1 mph - N/A   Clear
11:55 PM 69.8 °F 46.4 °F 43% 30.28 in 10.0 mi SW 5.8 mph - N/A   Clear